FW7501 Weather Reports


time (UTC)temp
F
wind
direction
speed
knots
gust
knots
rain 1hr
in
rain 24hr
in
rain mn
in
humidity
%
barometer
mb
20260504050504 57 351 12.2 24.3 0.00 0.00 0.00 68 1010.8
20260504050012 57 9 11.3 19.1 0.00 0.00 0.00 68 1010.7
20260504045503 57 49 6.1 19.1 0.00 0.00 0.00 68 1010.8
20260504045007 58 343 7.8 23.5 0.00 0.00 0.00 68 1010.5
20260504044514 58 21 9.6 23.5 0.00 0.00 0.00 66 1010.4
20260504044006 59 323 7.8 18.2 0.00 0.00 0.00 67 1010.4
20260504043513 58 14 7.8 18.2 0.00 0.00 0.00 68 1010.6
20260504043011 57 65 10.4 19.1 0.00 0.00 0.00 67 1010.7
20260504042510 57 16 8.7 21.7 0.00 0.00 0.00 68 1010.8
20260504042005 57 349 13.0 21.7 0.00 0.00 0.00 67 1010.7
20260504041508 57 351 9.6 23.5 0.00 0.00 0.00 67 1010.6
20260504041004 57 349 11.3 23.5 0.00 0.00 0.00 67 1010.7
20260504040503 58 7 8.7 21.7 0.00 0.00 0.00 67 1010.6
20260504040008 58 359 12.2 23.5 0.00 0.00 0.00 67 1010.8
20260504035504 57 4 11.3 23.5 0.00 0.00 0.00 68 1010.7
20260504035004 57 16 8.7 21.7 0.00 0.00 0.00 68 1010.7
20260504034507 57 359 12.2 21.7 0.00 0.00 0.00 67 1010.8
20260504034003 57 14 8.7 20.9 0.00 0.01 0.00 68 1011.0
20260504033506 57 320 9.6 23.5 0.00 0.01 0.00 68 1010.9
20260504033003 57 15 12.2 25.2 0.00 0.01 0.00 68 1010.9
20260504032503 57 6 13.0 25.2 0.00 0.02 0.00 68 1010.9
20260504032003 57 6 12.2 23.5 0.00 0.03 0.00 68 1011.0
20260504031503 57 351 12.2 28.7 0.00 0.03 0.00 67 1010.9
20260504031003 57 353 10.4 28.7 0.00 0.03 0.00 68 1010.9
20260504030503 58 4 13.9 26.1 0.00 0.04 0.00 67 1010.8
20260504030005 59 332 16.5 26.1 0.00 0.04 0.00 65 1010.7
20260504025504 58 15 13.9 26.1 0.00 0.07 0.00 66 1010.8
20260504025003 59 352 14.8 26.9 0.00 0.07 0.00 66 1010.9
20260504024509 58 39 13.9 27.8 0.00 0.07 0.00 66 1010.9
20260504024005 59 335 17.4 27.8 0.00 0.07 0.00 66 1010.9
20260504023503 58 358 14.8 26.1 0.00 0.07 0.00 66 1011.1
20260504023014 58 315 18.2 28.7 0.00 0.07 0.00 65 1011.1
20260504022503 58 31 13.9 28.7 0.00 0.07 0.00 66 1011.1
20260504022008 58 9 13.9 30.4 0.00 0.07 0.00 67 1011.5
20260504021513 58 3 17.4 30.4 0.00 0.07 0.00 66 1011.5
20260504021004 58 350 16.5 28.7 0.00 0.07 0.00 67 1011.7
20260504020503 58 326 14.8 21.7 0.00 0.08 0.00 68 1011.7
20260504020004 58 333 11.3 25.2 0.00 0.08 0.00 70 1011.8
20260504015504 57 345 13.0 25.2 0.00 0.08 0.00 70 1011.8
20260504015006 57 346 11.3 25.2 0.00 0.08 0.00 70 1011.9
20260504014508 57 2 10.4 20.0 0.00 0.08 0.00 73 1012.0
20260504014005 56 350 10.4 26.9 0.00 0.08 0.00 73 1012.2
20260504013507 56 335 11.3 26.9 0.00 0.08 0.00 73 1012.2
20260504013008 57 348 13.9 26.1 0.00 0.09 0.00 75 1012.1
20260504012504 56 328 15.6 22.6 0.00 0.11 0.00 74 1012.1
20260504012006 56 343 11.3 24.3 0.00 0.14 0.00 74 1012.1
20260504011503 56 349 10.4 24.3 0.00 0.15 0.00 76 1012.1
20260504011012 56 338 13.9 25.2 0.00 0.17 0.00 75 1012.1
20260504010504 56 339 14.8 25.2 0.00 0.19 0.00 74 1011.9
20260504010023 56 344 8.7 26.9 0.00 0.22 0.00 75 1011.9
20260504005507 56 18 10.4 26.9 0.00 0.25 0.00 76 1012.0
20260504005004 56 8 12.2 28.7 0.00 0.27 0.00 76 1011.9
20260504004507 55 21 12.2 28.7 0.00 0.29 0.00 76 1011.8
20260504004003 55 350 14.8 28.7 0.00 0.37 0.00 76 1011.9
20260504003503 56 359 10.4 22.6 0.00 0.40 0.00 77 1012.1
20260504003010 56 328 9.6 22.6 0.00 0.44 0.00 78 1012.0
20260504002504 55 9 9.6 26.9 0.00 0.45 0.00 78 1012.1
20260504002007 54 343 13.0 26.9 0.00 0.47 0.00 79 1012.0
20260504001515 55 2 12.2 26.9 0.00 0.48 0.00 78 1012.1
20260504001003 55 333 13.9 26.9 0.00 0.48 0.00 77 1012.2
20260504000507 55 351 9.6 20.0 0.00 0.49 0.00 79 1012.3
20260504000010 55 341 12.2 22.6 0.00 0.51 0.00 78 1012.3
20260503235507 55 40 10.4 22.6 0.00 0.55 0.00 79 1012.2
20260503235008 54 6 12.2 20.9 0.00 0.58 0.00 78 1011.9
20260503234508 54 8 11.3 23.5 0.00 0.59 0.00 79 1012.0
20260503234010 53 9 9.6 26.9 0.00 0.60 0.00 79 1012.1
20260503233508 54 358 11.3 26.9 0.00 0.61 0.00 79 1012.0
20260503233009 53 351 12.2 21.7 0.00 0.61 0.00 80 1012.1
20260503232506 53 22 12.2 21.7 0.00 0.61 0.00 79 1012.3
20260503232007 53 17 9.6 19.1 0.00 0.61 0.00 79 1012.4
20260503231514 53 16 11.3 19.1 0.00 0.61 0.00 79 1012.4
20260503231008 53 12 11.3 19.1 0.00 0.61 0.00 80 1012.7
20260503230509 53 22 9.6 20.0 0.00 0.61 0.00 80 1012.7
20260503230019 53 346 10.4 20.9 0.00 0.61 0.00 80 1012.6
20260503225507 53 8 7.8 20.9 0.00 0.61 0.00 80 1012.6
20260503225014 53 10 10.4 20.0 0.00 0.61 0.00 80 1012.6
20260503224527 53 15 10.4 18.2 0.00 0.61 0.00 79 1012.7
20260503224010 54 344 10.4 18.2 0.00 0.61 0.00 80 1012.7
20260503223507 53 49 9.6 18.2 0.00 0.61 0.00 81 1012.5
20260503223018 53 21 9.6 18.2 0.00 0.61 0.00 81 1012.4
20260503222507 52 15 8.7 18.2 0.00 0.61 0.00 81 1012.3
20260503222007 52 16 9.6 15.6 0.00 0.61 0.00 81 1012.3
20260503221516 52 2 7.0 19.1 0.00 0.61 0.00 82 1012.3
20260503221008 52 355 7.8 19.1 0.00 0.61 0.00 81 1012.4
20260503220508 52 347 7.0 16.5 0.00 0.61 0.00 82 1012.3
20260503220021 52 4 6.1 16.5 0.00 0.61 0.00 82 1012.5
20260503215508 52 4 6.1 16.5 0.00 0.61 0.00 82 1012.6
20260503215010 52 6 7.8 18.2 0.00 0.61 0.00 82 1012.6
20260503214510 52 23 7.8 18.2 0.00 0.61 0.00 82 1012.7
20260503214008 52 37 7.8 18.2 0.00 0.61 0.00 82 1012.7
20260503213508 52 348 7.8 14.8 0.00 0.61 0.00 82 1012.7
20260503213021 52 358 7.0 14.8 0.00 0.61 0.00 82 1012.7
20260503212515 52 337 8.7 14.8 0.00 0.61 0.00 82 1012.5
20260503212007 51 360 7.8 13.9 0.00 0.61 0.00 82 1012.4
20260503211527 51 57 2.6 12.2 0.00 0.61 0.00 82 1012.4
20260503211007 51 19 4.3 12.2 0.00 0.61 0.00 82 1012.3
20260503210510 51 7 3.5 12.2 0.00 0.61 0.00 82 1012.3
20260503210023 51 341 5.2 11.3 0.00 0.61 0.00 82 1012.3
20260503205507 51 23 7.0 11.3 0.00 0.61 0.00 82 1012.2
20260503205004 51 24 3.5 9.6 0.00 0.61 0.00 83 1012.3
20260503204515 51 8 5.2 9.6 0.00 0.61 0.00 83 1012.4
20260503204008 52 331 3.5 10.4 0.00 0.62 0.00 83 1012.5
20260503203510 52 24 5.2 11.3 0.00 0.62 0.00 83 1012.5
20260503203019 52 330 4.3 11.3 0.00 0.62 0.00 83 1012.5
20260503202509 51 51 5.2 11.3 0.00 0.62 0.00 83 1012.4
20260503202010 51 31 4.3 11.3 0.00 0.63 0.00 82 1012.3
20260503201518 51 19 6.1 10.4 0.00 0.63 0.00 82 1012.4
20260503201013 51 20 6.1 13.9 0.00 0.63 0.00 83 1012.2
20260503200510 51 37 7.0 13.9 0.00 0.63 0.00 83 1012.2
20260503200016 51 2 5.2 13.9 0.00 0.64 0.00 84 1012.2
20260503195510 51 4 5.2 13.9 0.00 0.64 0.00 84 1012.1
20260503195010 51 32 4.3 8.7 0.00 0.65 0.00 84 1012.0
20260503194531 51 44 2.6 8.7 0.00 0.65 0.00 84 1011.9
20260503194007 51 9 2.6 8.7 0.00 0.66 0.00 84 1012.0
20260503193512 51 47 3.5 9.6 0.00 0.66 0.00 84 1012.1
20260503193017 51 26 5.2 10.4 0.00 0.66 0.00 84 1012.1
20260503192509 51 346 4.3 10.4 0.00 0.66 0.00 84 1012.2
20260503192008 51 27 3.5 9.6 0.00 0.66 0.00 84 1012.3
20260503191520 51 1 5.2 10.4 0.00 0.66 0.00 85 1012.3
20260503191010 51 15 4.3 10.4 0.00 0.66 0.00 85 1012.3
20260503190509 51 21 3.5 10.4 0.00 0.66 0.00 85 1012.3
20260503190026 51 18 2.6 8.7 0.00 0.66 0.00 85 1012.3
20260503185506 51 37 3.5 8.7 0.00 0.66 0.00 85 1012.3
20260503185013 51 295 2.6 8.7 0.00 0.66 0.00 85 1012.4
20260503184511 51 33 3.5 8.7 0.00 0.67 0.00 84 1012.5
20260503184002 51 28 2.6 7.0 0.00 0.67 0.00 85 1012.5
20260503183504 51 54 2.6 10.4 0.00 0.68 0.00 85 1012.6
20260503183004 51 360 2.6 10.4 0.00 0.68 0.00 85 1012.7
20260503182503 51 18 2.6 8.7 0.00 0.69 0.00 84 1012.7
20260503182004 51 54 2.6 8.7 0.00 0.69 0.00 85 1012.7
20260503181504 51 58 2.6 10.4 0.00 0.69 0.00 84 1012.7
20260503181005 51 15 3.5 10.4 0.00 0.69 0.00 84 1012.8
20260503180504 51 14 2.6 10.4 0.00 0.69 0.00 84 1012.9
20260503180005 51 84 3.5 10.4 0.00 0.69 0.00 84 1013.0
20260503175504 51 29 2.6 7.8 0.00 0.69 0.00 84 1012.9
20260503175003 51 57 2.6 7.8 0.00 0.69 0.00 84 1012.9
20260503174504 51 10 1.7 9.6 0.00 0.69 0.00 84 1012.9
20260503174003 51 351 4.3 10.4 0.00 0.69 0.00 84 1012.9
20260503173504 51 34 2.6 10.4 0.00 0.69 0.00 84 1013.0
20260503173005 52 29 3.5 7.8 0.00 0.69 0.00 85 1013.0
20260503172504 51 29 3.5 10.4 0.00 0.69 0.00 85 1013.1
20260503172004 51 28 1.7 12.2 0.00 0.69 0.00 84 1013.1
20260503171509 51 12 5.2 12.2 0.00 0.69 0.00 84 1013.0
20260503171003 51 33 4.3 10.4 0.00 0.69 0.00 84 1013.0
20260503170503 51 31 1.7 7.0 0.00 0.69 0.00 84 1013.0
20260503151003 52 54 3.5 12.2 0.00 0.69 0.00 83 1013.4
20260503131006 53 343 6.1 14.8 0.00 0.69 0.69 82 1013.9
20260503090510 53 9 0.0 4.3 0.00 0.69 0.69 79 1013.8
20260503081506 53 17 2.6 7.0 0.00 0.69 0.69 77 1012.5
20260503081005 53 360 0.9 4.3 0.00 0.69 0.69 77 1012.4
20260503080508 53 14 0.9 4.3 0.00 0.69 0.69 77 1012.4
20260503072505 56 9 4.3 7.8 0.00 0.69 0.69 73 1012.6
20260503072006 56 354 5.2 10.4 0.00 0.69 0.69 73 1012.5
20260503070508 57 350 7.0 13.0 0.00 0.69 0.69 72 1012.4
20260503054509 59 335 7.0 14.8 0.00 0.69 0.69 81 1011.8
20260503054006 60 344 7.8 15.6 0.00 0.69 0.69 82 1011.7
20260503053502 60 340 8.7 20.9 0.00 0.69 0.69 84 1011.8
20260503053013 59 351 7.8 20.9 0.00 0.69 0.69 85 1011.8
20260503052503 58 332 9.6 19.1 0.00 0.69 0.69 85 1011.7
20260503052006 59 324 8.7 17.4 0.00 0.69 0.69 86 1011.6